Regional Weather Roundup
Issued by NWS

Home | Current Version | Previous Version | Text Only | Print | Product List | Glossary Off
Versions: 1 2 3 4 5 6 7 8 9 10 11 12 13 14 15 16 17 18 19 20 21 22 23 24 25 26 27 28 29 30 31 32 33 34 35 36 37 38 39 40 41 42 43 44 45 46 47 48 49 50

000
ASUS43 KMPX 030401
RWRMN
WEATHER ROUNDUP FOR MINNESOTA
NATIONAL WEATHER SERVICE TWIN CITIES/CHANHASSEN MN
1100 PM CDT THU JUL 02 2015


NOTE: "FAIR" INDICATES FEW OR NO CLOUDS BELOW 12,000 FEET WITH NO
SIGNIFICANT WEATHER AND/OR OBSTRUCTIONS TO VISIBILITY. N/A MEANS
CURRENT SKY AND/OR WEATHER CONDITIONS ARE NOT AVAILABLE.

MNZ060>063-068>070-030500-
   Twin Cities Metro

CITY           SKY/WX    TMP DP  RH WIND       PRES   REMARKS
TWIN CITIES    PTCLDY    71  54  54 S5        29.99R
ST PAUL        CLEAR     66  58  75 CALM      29.99R
CRYSTAL        CLEAR     63  55  75 CALM      29.97S
BLAINE         CLEAR     66  55  68 CALM      29.99R
LAKEVILLE      CLEAR     59  57  94 CALM      29.99S
EDEN PRAIRIE   CLEAR     66  56  70 S3        29.98R
SOUTH ST PAUL  CLEAR     67  56  66 CALM      29.98S
LAKE ELMO      FAIR      63  57  82 CALM      30.00S
$$
MNZ001>005-007-008-013>017-022>024-027-028-030500-
   Northwest Minnesota

CITY           SKY/WX    TMP DP  RH WIND       PRES   REMARKS
BEMIDJI        PTCLDY    64  55  74 SW7       29.93F
HALLOCK        PTCLDY    68  64  88 CALM      29.87S
ROSEAU         PTCLDY    66  61  82 SW7       29.87F
WARROAD        CLEAR     66  61  82 SW6       29.88S
THIEF RVR FALL CLEAR     66  55  68 S8        29.91S
CROOKSTON      CLEAR     66  59  77 SW8       29.91S
FOSSTON        PTCLDY    64  54  68 S9        29.94S
DETROIT LAKES  PTCLDY    63  54  72 S5        29.98S
MOORHEAD       CLEAR     66  55  68 S8        29.94F
PARK RAPIDS    CLEAR     61  53  75 S8        29.96F
MAHNOMEN       FAIR      63  55  76 S8        29.94S
$$
MNZ006-009>011-018-025>026-030500-
   North Central Minnesota

CITY           SKY/WX    TMP DP  RH WIND       PRES   REMARKS
BAUDETTE       MOCLDY    67  55  65 SW6       29.87F
FLAG ISLAND    CLEAR     70  61  73 SW12      29.84S
INTL FALLS     CLOUDY    68  58  70 SW7       29.87F
WASKISH        MOCLDY    66  57  72 S6        29.90F
BIG FORK       MOCLDY    63  57  82 SW3       29.92F
LONGVILLE      CLEAR     64  55  72 W3        29.97S
GRAND RAPIDS   MOCLDY    66  55  68 SW5       29.95F
CRANE LAKE     MOCLDY    59  57  94 S2        29.90F
ORR            PTCLDY    66  55  68 CALM      29.88F
COOK           PTCLDY    66  57  72 SW6       29.91F
WALKER         FAIR      62  56  79 S3        29.96S
$$
MNZ012-019>021-037-030500-
   Northeast Minnesota

CITY           SKY/WX    TMP DP  RH WIND       PRES   REMARKS
DULUTH         CLEAR     64  56  75 SW8       29.95F
ELY            PTCLDY    64  57  77 SW6       29.91F
HIBBING        MOCLDY    62  57  83 SW3       29.94F
DULUTH HARBOR  CLEAR     68  61  77 SW9       29.94F
SILVER BAY       N/A    N/A N/A N/A MISG      29.91F
GRAND MARAIS     N/A     53  51  93 CALM      29.87F
G MARAIS ARPRT CLEAR     61  55  82 SW5       29.92F
$$
MNZ029>031-032-039>041-046>048-054>057-064-030500-
   West Central Minnesota

CITY           SKY/WX    TMP DP  RH WIND       PRES   REMARKS
FERGUS FALLS   PTCLDY    64  55  72 S6        29.97R
WHEATON        CLEAR     63  54  72 S6        29.99R
MORRIS         PTCLDY    61  55  82 CALM      29.98R
ALEXANDRIA     PTCLDY    61  52  72 CALM      30.01R
ELBOW LAKE     FAIR      61  56  84 S7        29.98R
WADENA         PTCLDY    57  52  82 CALM      29.98S
GLENWOOD       PTCLDY    59  54  82 S3        30.00S
APPLETON       CLEAR     61  54  77 CALM      29.98R
BENSON         CLEAR     57  54  88 CALM      29.99R
ORTONVILLE     CLEAR     61  54  77 S5        29.98R
MADISON        CLEAR     61  54  77 CALM      29.99R
WILLMAR        FAIR      63  55  77 CALM      30.01R
$$
MNZ033>034-036-042>043-049>051-058-059-030500-
   Central Minnesota

CITY           SKY/WX    TMP DP  RH WIND       PRES   REMARKS
ST CLOUD       CLEAR     58  55  90 CALM      29.99R
SAUK CENTRE    FAIR      57  55  95 CALM      29.99S
PAYNESVILLE    CLEAR     54  53  95 CALM      30.00R
AITKIN         CLEAR     59  54  82 CALM      29.95F
PINE RIVER     CLEAR     63  55  77 CALM      30.01S
BRAINERD       CLEAR     60  55  83 S3        29.98R
STAPLES        CLEAR     57  54  88 CALM      29.99S
LONG PRAIRIE   FAIR      55  54  94 CALM      30.00R
LITTLE FALLS   CLEAR     57  54  88 CALM      29.99R
LITCHFIELD     CLEAR     63  54  72 CALM      30.00R
BUFFALO        CLEAR     62  56  81 CALM      30.00R
MAPLE LAKE     CLEAR     59  57  91 CALM      30.00S
$$
MNZ037-044-045-052-053-030500-
   East Central Minnesota

CITY           SKY/WX    TMP DP  RH WIND       PRES   REMARKS
PRINCETON      CLEAR     61  57  88 CALM      29.99R
MORA           CLEAR     59  55  88 CALM      30.00S
CAMBRIDGE      CLEAR     64  55  72 CALM      29.97S
RUSH CITY      PTCLDY    60  56  87 CALM      29.99R
MOOSE LAKE     PTCLDY    55  55 100 CALM      29.96S
HINCKLEY       FAIR      57  57 100 CALM      29.98S
CLOQUET        CLEAR     63  54  72 SW5       29.96F
MCGREGOR       PTCLDY    63  55  77 SW3       29.97F
$$
MNZ071>073-080-081-089-090-097-098-030500-
   Southwest Minnesota

CITY           SKY/WX    TMP DP  RH WIND       PRES   REMARKS
MONTEVIDEO     CLEAR     61  48  63 CALM      29.99S
GRANITE FALLS  CLEAR     59  54  83 CALM      30.00S
CANBY          CLEAR     56  53  89 CALM      30.00S
MARSHALL       CLEAR     59  50  72 SW7       29.98S
REDWOOD FALLS  CLEAR     62  54  74 S3        29.98S
OLIVIA         CLEAR     59  50  72 CALM      29.99R
PIPESTONE      CLEAR     59  54  82 CALM      30.01S
WINDOM         CLEAR     59  54  82 CALM      30.01S
WORTHINGTON    CLEAR     61  52  72 S5        30.01S
JACKSON        PTCLDY    61  55  82 S5        30.01F
TRACY          CLEAR     60  52  76 S6        30.00S
SLAYTON        CLEAR     55  52  90 CALM      30.02R
$$
MNZ065>067-074>077-082>085-091>093-030500-
   South Central Minnesota

CITY           SKY/WX    TMP DP  RH WIND       PRES   REMARKS
MANKATO        PTCLDY    66  57  72 CALM      29.99S
NEW ULM        CLEAR     61  55  82 CALM      29.99S
ST JAMES       PTCLDY    61  55  82 S5        30.00S
FAIRMONT       PTCLDY    61  48  63 SW5       29.99F
GLENCOE        CLEAR     61  57  87 CALM      29.99S
FARIBAULT      PTCLDY    57  55  94 CALM      29.99F
OWATONNA       PTCLDY    63  55  77 CALM      30.00S
WASECA         PTCLDY    59  54  82 CALM      30.01S
ALBERT LEA     MOCLDY    63  57  82 CALM      30.00S
$$
MNZ078>079-086>088-094>096-030500-
   Southeast Minnesota

CITY           SKY/WX    TMP DP  RH WIND       PRES   REMARKS
ROCHESTER      MOCLDY    62  54  74 SE3       30.00F
RED WING       CLEAR     59  55  88 CALM      29.98S
DODGE CENTER   MOCLDY    61  55  82 CALM      30.00F
WINONA         PTCLDY    61  57  88 CALM      29.99F
AUSTIN         MOCLDY    63  57  82 CALM      30.00S
PRESTON        MOCLDY    64  53  68 CALM      30.01F
$$
ABBREVIATIONS USED IN REMARKS
   TC - TEMPERATURES IN CELSIUS
  WCI - WIND CHILL INDEX
   HX - HEAT INDEX
  VSB - VISIBILITY
$$


USA.gov is the U.S. government's official web portal to all federal, state and local government web resources and services.